| time (UTC) | temp C | wind direction | speed KPH | gust KPH | rain 1hr cm | rain 24hr cm | rain mn cm | humidity % | barometer mb |
| 20260503034017 | 10 | 1 | 4.8 | 4.8 | 0.00 | 0.03 | 0.03 | 59 | 1009.9 |
| 20260503033514 | 10 | 7 | 4.8 | 4.8 | 0.00 | 0.03 | 0.03 | 58 | 1010.0 |
| 20260503033012 | 10 | 6 | 1.6 | 1.6 | 0.00 | 0.03 | 0.03 | 57 | 1010.0 |
| 20260503032510 | 10 | 24 | 4.8 | 4.8 | 0.00 | 0.03 | 0.03 | 58 | 1010.0 |
| 20260503032008 | 10 | 14 | 3.2 | 3.2 | 0.00 | 0.03 | 0.03 | 58 | 1010.1 |
| 20260503031505 | 10 | 20 | 4.8 | 4.8 | 0.00 | 0.03 | 0.03 | 57 | 1010.0 |
| 20260503031002 | 10 | 5 | 0.0 | 1.6 | 0.00 | 0.03 | 0.03 | 59 | 1009.9 |
| 20260503030458 | 11 | 20 | 3.2 | 3.2 | 0.00 | 0.03 | 0.03 | 58 | 1010.0 |
| 20260503025955 | 11 | 22 | 4.8 | 4.8 | 0.00 | 0.03 | 0.03 | 58 | 1010.0 |
| 20260503025452 | 11 | 23 | 3.2 | 3.2 | 0.00 | 0.03 | 0.03 | 58 | 1009.9 |
| 20260503024949 | 11 | 8 | 0.0 | 0.0 | 0.00 | 0.03 | 0.03 | 57 | 1010.0 |
| 20260503024446 | 11 | 0 | 3.2 | 3.2 | 0.00 | 0.03 | 0.03 | 55 | 1010.0 |
| 20260503023943 | 11 | 9 | 1.6 | 3.2 | 0.00 | 0.03 | 0.03 | 54 | 1010.0 |
| 20260503023440 | 11 | 33 | 11.3 | 12.9 | 0.00 | 0.03 | 0.03 | 54 | 1009.9 |
| 20260503022937 | 11 | 26 | 3.2 | 3.2 | 0.00 | 0.03 | 0.03 | 54 | 1010.1 |
| 20260503022432 | 11 | 7 | 4.8 | 8.0 | 0.00 | 0.03 | 0.03 | 53 | 1010.1 |
| 20260503021928 | 11 | 3 | 8.0 | 9.7 | 0.00 | 0.03 | 0.03 | 52 | 1010.1 |
| 20260503021424 | 11 | 357 | 8.0 | 11.3 | 0.00 | 0.03 | 0.03 | 52 | 1010.5 |
| 20260503020922 | 11 | 10 | 12.9 | 14.5 | 0.00 | 0.03 | 0.03 | 51 | 1010.5 |
| 20260503020420 | 11 | 356 | 3.2 | 4.8 | 0.00 | 0.03 | 0.03 | 51 | 1010.3 |
| 20260503015916 | 11 | 2 | 4.8 | 9.7 | 0.00 | 0.03 | 0.03 | 50 | 1010.6 |
| 20260503015413 | 11 | 13 | 4.8 | 4.8 | 0.00 | 0.03 | 0.03 | 50 | 1010.4 |
| 20260503014908 | 11 | 10 | 4.8 | 4.8 | 0.00 | 0.03 | 0.03 | 50 | 1010.0 |
| 20260503014406 | 11 | 359 | 3.2 | 3.2 | 0.00 | 0.03 | 0.03 | 51 | 1010.4 |
| 20260503013904 | 11 | 359 | 3.2 | 3.2 | 0.00 | 0.03 | 0.03 | 51 | 1010.1 |
| 20260503013401 | 11 | 338 | 4.8 | 4.8 | 0.00 | 0.03 | 0.03 | 51 | 1010.2 |
| 20260503012858 | 11 | 10 | 1.6 | 1.6 | 0.00 | 0.03 | 0.03 | 51 | 1010.1 |
| 20260503012355 | 11 | 22 | 4.8 | 4.8 | 0.00 | 0.03 | 0.03 | 51 | 1010.3 |
| 20260503011852 | 11 | 355 | 1.6 | 1.6 | 0.00 | 0.03 | 0.03 | 51 | 1010.1 |
| 20260503011349 | 11 | 347 | 4.8 | 4.8 | 0.00 | 0.03 | 0.03 | 52 | 1010.0 |
| 20260503010845 | 11 | 0 | 1.6 | 1.6 | 0.00 | 0.03 | 0.03 | 54 | 1010.0 |
| 20260503010342 | 11 | 352 | 1.6 | 1.6 | 0.00 | 0.03 | 0.03 | 55 | 1009.9 |
| 20260503005839 | 12 | 350 | 3.2 | 3.2 | 0.00 | 0.03 | 0.03 | 54 | 1009.9 |
| 20260503005337 | 12 | 0 | 3.2 | 3.2 | 0.00 | 0.03 | 0.03 | 54 | 1009.9 |
| 20260503004833 | 11 | 356 | 4.8 | 4.8 | 0.00 | 0.03 | 0.03 | 57 | 1009.8 |
| 20260503004330 | 11 | 351 | 1.6 | 1.6 | 0.00 | 0.03 | 0.03 | 59 | 1009.8 |
| 20260503003828 | 11 | 352 | 0.0 | 0.0 | 0.00 | 0.03 | 0.03 | 66 | 1009.7 |
| 20260503003325 | 11 | 352 | 0.0 | 0.0 | 0.00 | 0.03 | 0.03 | 65 | 1009.6 |
| 20260503002821 | 12 | 352 | 0.0 | 0.0 | 0.00 | 0.03 | 0.03 | 63 | 1009.5 |
| 20260503002319 | 12 | 344 | 0.0 | 0.0 | 0.00 | 0.03 | 0.03 | 61 | 1009.5 |
| 20260503001815 | 12 | 0 | 0.0 | 0.0 | 0.00 | 0.03 | 0.03 | 61 | 1009.5 |
| 20260503001311 | 12 | 358 | 0.0 | 0.0 | 0.00 | 0.03 | 0.03 | 60 | 1009.7 |
| 20260503000809 | 12 | 1 | 0.0 | 0.0 | 0.00 | 0.03 | 0.03 | 59 | 1009.5 |
| 20260503000306 | 13 | 0 | 1.6 | 1.6 | 0.00 | 0.03 | 0.03 | 58 | 1009.6 |
| 20260502235803 | 13 | 7 | 1.6 | 1.6 | 0.00 | 0.03 | 0.03 | 58 | 1009.5 |
| 20260502235300 | 13 | 24 | 3.2 | 3.2 | 0.00 | 0.03 | 0.03 | 57 | 1009.5 |
| 20260502234757 | 13 | 6 | 1.6 | 1.6 | 0.00 | 0.03 | 0.03 | 53 | 1009.6 |
| 20260502234254 | 13 | 1 | 1.6 | 3.2 | 0.00 | 0.03 | 0.03 | 50 | 1009.3 |
| 20260502233750 | 13 | 0 | 0.0 | 0.0 | 0.00 | 0.03 | 0.03 | 49 | 1009.5 |
| 20260502233247 | 13 | 350 | 1.6 | 1.6 | 0.00 | 0.03 | 0.03 | 48 | 1009.2 |
| 20260502232743 | 14 | 353 | 1.6 | 1.6 | 0.00 | 0.03 | 0.03 | 47 | 1009.4 |
| 20260502232240 | 14 | 359 | 0.0 | 0.0 | 0.00 | 0.03 | 0.03 | 47 | 1009.2 |
| 20260502231737 | 14 | 353 | 3.2 | 3.2 | 0.00 | 0.03 | 0.03 | 44 | 1009.3 |
| 20260502231234 | 15 | 357 | 3.2 | 4.8 | 0.00 | 0.03 | 0.03 | 44 | 1009.2 |
| 20260502230733 | 15 | 350 | 3.2 | 3.2 | 0.00 | 0.03 | 0.03 | 43 | 1009.1 |
| 20260502230231 | 15 | 314 | 6.4 | 9.7 | 0.00 | 0.03 | 0.03 | 42 | 1009.1 |
| 20260502225727 | 15 | 0 | 4.8 | 4.8 | 0.00 | 0.03 | 0.03 | 44 | 1009.0 |
| 20260502225224 | 15 | 0 | 0.0 | 3.2 | 0.00 | 0.03 | 0.03 | 44 | 1009.2 |
| 20260502224720 | 15 | 353 | 4.8 | 4.8 | 0.00 | 0.03 | 0.03 | 45 | 1009.0 |
| 20260502224217 | 15 | 352 | 8.0 | 9.7 | 0.00 | 0.03 | 0.03 | 45 | 1009.0 |
| 20260502223714 | 15 | 1 | 1.6 | 1.6 | 0.00 | 0.03 | 0.03 | 47 | 1009.2 |
| 20260502223213 | 15 | 25 | 4.8 | 8.0 | 0.00 | 0.03 | 0.03 | 48 | 1009.2 |
| 20260502222710 | 15 | 345 | 4.8 | 4.8 | 0.00 | 0.03 | 0.03 | 47 | 1009.1 |
| 20260502222206 | 14 | 310 | 8.0 | 11.3 | 0.00 | 0.03 | 0.03 | 48 | 1009.2 |
| 20260502221702 | 14 | 349 | 1.6 | 1.6 | 0.00 | 0.03 | 0.03 | 50 | 1009.1 |
| 20260502221159 | 14 | 344 | 3.2 | 3.2 | 0.00 | 0.03 | 0.03 | 49 | 1009.1 |
| 20260502220655 | 15 | 332 | 8.0 | 9.7 | 0.00 | 0.03 | 0.03 | 49 | 1009.1 |
| 20260502220152 | 15 | 349 | 4.8 | 8.0 | 0.00 | 0.03 | 0.03 | 49 | 1009.1 |
| 20260502215649 | 15 | 317 | 8.0 | 9.7 | 0.00 | 0.03 | 0.03 | 49 | 1009.2 |
| 20260502215146 | 14 | 356 | 8.0 | 9.7 | 0.00 | 0.03 | 0.03 | 49 | 1009.3 |
| 20260502214643 | 14 | 1 | 6.4 | 11.3 | 0.00 | 0.03 | 0.03 | 50 | 1009.2 |
| 20260502214140 | 14 | 5 | 6.4 | 9.7 | 0.00 | 0.03 | 0.03 | 51 | 1009.0 |
| 20260502213637 | 14 | 358 | 4.8 | 8.0 | 0.00 | 0.03 | 0.03 | 52 | 1009.0 |
| 20260502213134 | 14 | 330 | 8.0 | 9.7 | 0.00 | 0.03 | 0.03 | 53 | 1008.9 |
| 20260502212633 | 14 | 333 | 1.6 | 4.8 | 0.00 | 0.03 | 0.03 | 55 | 1008.9 |
| 20260502212131 | 14 | 19 | 6.4 | 8.0 | 0.00 | 0.03 | 0.03 | 55 | 1009.0 |
| 20260502211626 | 15 | 11 | 4.8 | 8.0 | 0.00 | 0.03 | 0.03 | 57 | 1008.9 |
| 20260502211124 | 14 | 348 | 3.2 | 4.8 | 0.00 | 0.03 | 0.03 | 57 | 1008.9 |
| 20260502210621 | 14 | 356 | 4.8 | 8.0 | 0.00 | 0.03 | 0.03 | 57 | 1009.0 |
| 20260502210118 | 14 | 8 | 6.4 | 11.3 | 0.00 | 0.03 | 0.03 | 58 | 1008.7 |
| 20260502205614 | 15 | 356 | 8.0 | 12.9 | 0.00 | 0.03 | 0.03 | 56 | 1008.7 |
| 20260502205112 | 15 | 6 | 0.0 | 1.6 | 0.00 | 0.03 | 0.03 | 56 | 1008.7 |
| 20260502204608 | 15 | 17 | 8.0 | 8.0 | 0.00 | 0.03 | 0.03 | 54 | 1008.5 |
| 20260502204106 | 15 | 5 | 6.4 | 8.0 | 0.00 | 0.03 | 0.03 | 49 | 1008.8 |
| 20260502203603 | 15 | 358 | 6.4 | 8.0 | 0.00 | 0.03 | 0.03 | 48 | 1008.9 |
| 20260502203100 | 15 | 320 | 3.2 | 3.2 | 0.00 | 0.03 | 0.03 | 48 | 1008.8 |
| 20260502202555 | 15 | 339 | 4.8 | 4.8 | 0.00 | 0.03 | 0.03 | 51 | 1008.8 |
| 20260502202054 | 15 | 0 | 4.8 | 4.8 | 0.00 | 0.03 | 0.03 | 51 | 1009.0 |
| 20260502201550 | 15 | 315 | 3.2 | 3.2 | 0.00 | 0.03 | 0.03 | 52 | 1009.1 |
| 20260502201047 | 15 | 345 | 3.2 | 3.2 | 0.00 | 0.03 | 0.03 | 52 | 1009.3 |
| 20260502200542 | 15 | 326 | 4.8 | 4.8 | 0.00 | 0.03 | 0.03 | 53 | 1009.4 |
| 20260502200040 | 14 | 323 | 4.8 | 4.8 | 0.00 | 0.03 | 0.03 | 55 | 1009.2 |
| 20260502195537 | 14 | 348 | 6.4 | 9.7 | 0.00 | 0.03 | 0.03 | 55 | 1009.2 |
| 20260502195033 | 15 | 343 | 4.8 | 8.0 | 0.00 | 0.03 | 0.03 | 55 | 1009.4 |
| 20260502194530 | 15 | 337 | 4.8 | 4.8 | 0.00 | 0.03 | 0.03 | 55 | 1009.3 |
| 20260502194026 | 15 | 341 | 4.8 | 4.8 | 0.00 | 0.03 | 0.03 | 54 | 1009.4 |
| 20260502193524 | 15 | 341 | 4.8 | 4.8 | 0.00 | 0.03 | 0.03 | 57 | 1009.7 |
| 20260502193020 | 16 | 273 | 11.3 | 12.9 | 0.00 | 0.03 | 0.03 | 55 | 1009.7 |
| 20260502192516 | 15 | 323 | 3.2 | 3.2 | 0.00 | 0.03 | 0.03 | 55 | 1009.7 |
| 20260502192014 | 14 | 339 | 8.0 | 11.3 | 0.00 | 0.03 | 0.03 | 59 | 1009.9 |
| 20260502191511 | 14 | 3 | 8.0 | 12.9 | 0.00 | 0.03 | 0.03 | 59 | 1009.9 |
| 20260502191009 | 15 | 327 | 3.2 | 4.8 | 0.00 | 0.03 | 0.03 | 59 | 1010.0 |
| 20260502190506 | 15 | 283 | 8.0 | 9.7 | 0.00 | 0.03 | 0.03 | 58 | 1010.1 |
| 20260502190002 | 14 | 335 | 3.2 | 4.8 | 0.00 | 0.03 | 0.03 | 60 | 1010.0 |
| 20260502185458 | 14 | 322 | 6.4 | 9.7 | 0.00 | 0.03 | 0.03 | 60 | 1010.0 |
| 20260502184955 | 15 | 318 | 8.0 | 9.7 | 0.00 | 0.03 | 0.03 | 59 | 1009.9 |
| 20260502184450 | 14 | 313 | 8.0 | 8.0 | 0.00 | 0.03 | 0.03 | 60 | 1010.2 |
| 20260502183947 | 15 | 304 | 9.7 | 12.9 | 0.00 | 0.03 | 0.03 | 60 | 1010.0 |
| 20260502183443 | 15 | 289 | 4.8 | 4.8 | 0.00 | 0.03 | 0.03 | 60 | 1010.2 |
| 20260502182938 | 15 | 323 | 11.3 | 12.9 | 0.00 | 0.03 | 0.03 | 60 | 1010.3 |
| 20260502182434 | 15 | 316 | 4.8 | 8.0 | 0.00 | 0.03 | 0.03 | 61 | 1010.3 |
| 20260502181930 | 15 | 304 | 1.6 | 3.2 | 0.00 | 0.03 | 0.03 | 62 | 1010.0 |
| 20260502181429 | 15 | 304 | 8.0 | 9.7 | 0.00 | 0.03 | 0.03 | 62 | 1010.3 |
| 20260502180927 | 15 | 314 | 6.4 | 8.0 | 0.00 | 0.03 | 0.03 | 63 | 1010.2 |
| 20260502180424 | 14 | 322 | 4.8 | 4.8 | 0.00 | 0.03 | 0.03 | 64 | 1010.4 |
| 20260502170342 | 13 | 348 | 3.2 | 3.2 | 0.00 | 0.03 | 0.03 | 69 | 1010.5 |
| 20260502164330 | 13 | 259 | 8.0 | 9.7 | 0.00 | 0.03 | 0.03 | 69 | 1010.9 |
| 20260502163826 | 13 | 334 | 3.2 | 3.2 | 0.00 | 0.03 | 0.03 | 69 | 1010.9 |
| 20260502163322 | 13 | 325 | 3.2 | 3.2 | 0.00 | 0.03 | 0.03 | 69 | 1010.8 |
| 20260502162820 | 13 | 333 | 0.0 | 1.6 | 0.00 | 0.03 | 0.03 | 71 | 1010.9 |
| 20260502162316 | 13 | 346 | 4.8 | 4.8 | 0.00 | 0.03 | 0.03 | 71 | 1010.9 |
| 20260502161814 | 13 | 358 | 1.6 | 3.2 | 0.00 | 0.03 | 0.03 | 70 | 1010.9 |
| 20260502161309 | 13 | 25 | 0.0 | 0.0 | 0.00 | 0.03 | 0.03 | 72 | 1011.0 |
| 20260502160807 | 13 | 19 | 3.2 | 8.0 | 0.00 | 0.03 | 0.03 | 71 | 1010.8 |
| 20260502160306 | 13 | 6 | 3.2 | 3.2 | 0.00 | 0.03 | 0.03 | 72 | 1011.0 |
| 20260502152235 | 12 | 311 | 3.2 | 4.8 | 0.00 | 0.03 | 0.03 | 74 | 1011.0 |
| 20260502151733 | 12 | 358 | 0.0 | 1.6 | 0.00 | 0.03 | 0.03 | 75 | 1011.4 |
| 20260502151230 | 12 | 349 | 0.0 | 1.6 | 0.00 | 0.03 | 0.03 | 77 | 1011.2 |
| 20260502150727 | 12 | 332 | 4.8 | 8.0 | 0.00 | 0.03 | 0.03 | 76 | 1011.3 |
| 20260502150224 | 12 | 7 | 3.2 | 4.8 | 0.00 | 0.03 | 0.03 | 76 | 1011.3 |
| 20260502130612 | 11 | 20 | 1.6 | 1.6 | 0.00 | 0.03 | 0.03 | 83 | 1011.4 |
| 20260502130110 | 11 | 26 | 0.0 | 0.0 | 0.00 | 0.03 | 0.03 | 84 | 1011.7 |
| 20260502123555 | 10 | 4 | 1.6 | 3.2 | 0.00 | 0.03 | 0.03 | 88 | 1011.2 |
| 20260502123052 | 10 | 32 | 8.0 | 9.7 | 0.00 | 0.03 | 0.03 | 88 | 1011.4 |
| 20260502122548 | 10 | 8 | 1.6 | 3.2 | 0.00 | 0.03 | 0.03 | 89 | 1011.2 |
| 20260502122046 | 10 | 358 | 1.6 | 1.6 | 0.00 | 0.03 | 0.03 | 90 | 1011.4 |
| 20260502121543 | 10 | 356 | 3.2 | 3.2 | 0.00 | 0.03 | 0.03 | 90 | 1011.4 |
| 20260502121041 | 10 | 3 | 1.6 | 3.2 | 0.00 | 0.03 | 0.03 | 90 | 1011.5 |
| 20260502120537 | 10 | 356 | 4.8 | 4.8 | 0.00 | 0.03 | 0.03 | 90 | 1011.4 |
| 20260502115532 | 10 | 353 | 1.6 | 3.2 | 0.00 | 0.03 | 0.03 | 91 | 1011.7 |
| 20260502115027 | 10 | 3 | 4.8 | 4.8 | 0.00 | 0.03 | 0.03 | 91 | 1011.5 |
| 20260502114524 | 10 | 354 | 1.6 | 1.6 | 0.00 | 0.03 | 0.03 | 92 | 1011.7 |
| 20260502114021 | 10 | 351 | 1.6 | 3.2 | 0.00 | 0.03 | 0.03 | 92 | 1011.4 |
| 20260502113519 | 10 | 340 | 3.2 | 3.2 | 0.00 | 0.03 | 0.03 | 93 | 1011.6 |
| 20260502113017 | 10 | 343 | 1.6 | 1.6 | 0.00 | 0.03 | 0.03 | 93 | 1011.5 |
| 20260502112515 | 10 | 352 | 0.0 | 0.0 | 0.00 | 0.03 | 0.03 | 92 | 1011.3 |
| 20260502112012 | 10 | 354 | 0.0 | 0.0 | 0.00 | 0.03 | 0.03 | 92 | 1011.3 |
| 20260502111509 | 10 | 3 | 1.6 | 1.6 | 0.00 | 0.03 | 0.03 | 92 | 1011.1 |
| 20260502111007 | 10 | 1 | 0.0 | 1.6 | 0.00 | 0.03 | 0.03 | 92 | 1010.8 |
| 20260502110504 | 10 | 355 | 0.0 | 0.0 | 0.00 | 0.03 | 0.03 | 92 | 1010.6 |
| 20260502110002 | 10 | 358 | 0.0 | 0.0 | 0.00 | 0.03 | 0.03 | 92 | 1010.8 |
| 20260502105459 | 10 | 352 | 0.0 | 0.0 | 0.00 | 0.03 | 0.03 | 92 | 1010.3 |
| 20260502104956 | 10 | 354 | 0.0 | 0.0 | 0.13 | 0.03 | 0.03 | 91 | 1010.5 |
| 20260502104453 | 10 | 351 | 0.0 | 0.0 | 0.13 | 0.03 | 0.03 | 90 | 1010.8 |
| 20260502103950 | 10 | 348 | 1.6 | 1.6 | 0.00 | 0.00 | 0.00 | 90 | 1011.0 |
| 20260502103448 | 10 | 340 | 1.6 | 1.6 | 0.00 | 0.00 | 0.00 | 89 | 1011.4 |
| 20260502102945 | 10 | 340 | 0.0 | 0.0 | 0.00 | 0.00 | 0.00 | 89 | 1011.1 |
| 20260502102442 | 10 | 326 | 3.2 | 3.2 | 0.00 | 0.00 | 0.00 | 88 | 1010.9 |
| 20260502101938 | 10 | 342 | 0.0 | 0.0 | 0.00 | 0.00 | 0.00 | 88 | 1011.0 |
| 20260502101437 | 10 | 334 | 0.0 | 0.0 | 0.00 | 0.00 | 0.00 | 88 | 1011.3 |
| 20260502100935 | 10 | 322 | 1.6 | 3.2 | 0.00 | 0.00 | 0.00 | 88 | 1011.2 |
| 20260502100434 | 10 | 336 | 0.0 | 0.0 | 0.00 | 0.00 | 0.00 | 87 | 1011.2 |
| 20260502091408 | 10 | 266 | 1.6 | 3.2 | 0.00 | 0.00 | 0.00 | 86 | 1010.9 |
| 20260502090905 | 10 | 209 | 4.8 | 4.8 | 0.00 | 0.00 | 0.00 | 86 | 1010.9 |
| 20260502090402 | 10 | 267 | 3.2 | 3.2 | 0.00 | 0.00 | 0.00 | 86 | 1010.9 |
| 20260502071257 | 10 | 298 | 1.6 | 3.2 | 0.00 | 0.00 | 0.00 | 83 | 1011.0 |
| 20260502070755 | 10 | 313 | 1.6 | 1.6 | 0.00 | 0.00 | 0.00 | 82 | 1011.0 |
| 20260502070252 | 10 | 256 | 3.2 | 3.2 | 0.00 | 0.00 | 0.00 | 83 | 1010.8 |
| 20260502065751 | 10 | 263 | 1.6 | 3.2 | 0.00 | 0.00 | 0.00 | 82 | 1010.8 |
| 20260502065248 | 10 | 268 | 3.2 | 3.2 | 0.00 | 0.00 | 0.00 | 82 | 1011.0 |
| 20260502064747 | 10 | 303 | 1.6 | 3.2 | 0.00 | 0.00 | 0.00 | 82 | 1011.2 |
| 20260502064244 | 10 | 298 | 1.6 | 3.2 | 0.00 | 0.00 | 0.00 | 82 | 1011.1 |
| 20260502063741 | 10 | 329 | 0.0 | 0.0 | 0.00 | 0.00 | 0.00 | 82 | 1011.1 |
| 20260502063239 | 10 | 239 | 4.8 | 8.0 | 0.00 | 0.00 | 0.00 | 81 | 1011.1 |
| 20260502062736 | 10 | 307 | 3.2 | 4.8 | 0.00 | 0.00 | 0.00 | 81 | 1011.1 |
| 20260502062234 | 10 | 332 | 0.0 | 0.0 | 0.00 | 0.00 | 0.00 | 81 | 1011.1 |
| 20260502061732 | 10 | 246 | 1.6 | 3.2 | 0.00 | 0.00 | 0.00 | 80 | 1011.0 |
| 20260502061229 | 10 | 218 | 6.4 | 8.0 | 0.00 | 0.00 | 0.00 | 80 | 1011.2 |
| 20260502060724 | 10 | 303 | 3.2 | 4.8 | 0.00 | 0.00 | 0.00 | 80 | 1011.3 |
| 20260502060220 | 10 | 327 | 1.6 | 1.6 | 0.00 | 0.00 | 0.00 | 79 | 1011.3 |
| 20260502055718 | 10 | 321 | 0.0 | 0.0 | 0.00 | 0.00 | 0.00 | 78 | 1011.4 |
| 20260502055216 | 10 | 318 | 1.6 | 3.2 | 0.00 | 0.00 | 0.00 | 78 | 1011.6 |
| 20260502054715 | 10 | 323 | 1.6 | 1.6 | 0.00 | 0.00 | 0.00 | 78 | 1011.4 |
| 20260502054212 | 10 | 227 | 3.2 | 8.0 | 0.00 | 0.00 | 0.00 | 77 | 1011.1 |
| 20260502053710 | 10 | 283 | 1.6 | 3.2 | 0.00 | 0.00 | 0.00 | 77 | 1011.0 |
| 20260502053206 | 10 | 325 | 0.0 | 1.6 | 0.00 | 0.00 | 0.00 | 77 | 1011.3 |
| 20260502052705 | 10 | 306 | 3.2 | 3.2 | 0.00 | 0.00 | 0.00 | 77 | 1011.2 |
| 20260502052203 | 10 | 330 | 1.6 | 3.2 | 0.00 | 0.00 | 0.00 | 76 | 1011.1 |
| 20260502051700 | 10 | 139 | 4.8 | 4.8 | 0.00 | 0.00 | 0.00 | 76 | 1011.2 |
| 20260502051159 | 10 | 269 | 3.2 | 3.2 | 0.00 | 0.00 | 0.00 | 76 | 1011.2 |
| 20260502050655 | 10 | 337 | 0.0 | 0.0 | 0.00 | 0.00 | 0.00 | 75 | 1011.0 |
| 20260502050151 | 10 | 332 | 0.0 | 0.0 | 0.00 | 0.00 | 0.00 | 75 | 1011.2 |
| 20260502045648 | 10 | 274 | 3.2 | 4.8 | 0.00 | 0.00 | 0.00 | 75 | 1011.3 |
| 20260502045145 | 11 | 331 | 0.0 | 0.0 | 0.00 | 0.00 | 0.00 | 75 | 1011.1 |
| 20260502044642 | 11 | 332 | 0.0 | 0.0 | 0.00 | 0.00 | 0.00 | 75 | 1011.3 |
| 20260502044138 | 11 | 298 | 1.6 | 3.2 | 0.00 | 0.00 | 0.00 | 74 | 1011.2 |
| 20260502043636 | 11 | 306 | 3.2 | 3.2 | 0.00 | 0.00 | 0.00 | 74 | 1011.3 |
| 20260502043133 | 11 | 235 | 3.2 | 8.0 | 0.00 | 0.00 | 0.00 | 75 | 1011.4 |
| 20260502042632 | 11 | 297 | 3.2 | 3.2 | 0.00 | 0.00 | 0.00 | 75 | 1011.5 |
| 20260502042129 | 11 | 290 | 3.2 | 3.2 | 0.00 | 0.00 | 0.00 | 76 | 1011.6 |
| 20260502041627 | 10 | 317 | 1.6 | 3.2 | 0.00 | 0.00 | 0.00 | 77 | 1011.6 |
| 20260502041124 | 10 | 300 | 3.2 | 3.2 | 0.00 | 0.00 | 0.00 | 78 | 1011.5 |
| 20260502040621 | 10 | 328 | 0.0 | 1.6 | 0.00 | 0.00 | 0.00 | 80 | 1011.6 |
| 20260502040118 | 10 | 330 | 3.2 | 3.2 | 0.00 | 0.00 | 0.00 | 81 | 1011.6 |
| 20260502035614 | 10 | 335 | 3.2 | 3.2 | 0.00 | 0.00 | 0.00 | 82 | 1011.5 |
| 20260502035111 | 10 | 237 | 6.4 | 8.0 | 0.00 | 0.00 | 0.00 | 82 | 1011.4 |
| 20260502034609 | 10 | 336 | 1.6 | 3.2 | 0.00 | 0.00 | 0.00 | 83 | 1011.4 |